When you browse on this site, cookies collect data to enhance your experience and personalize the content and advertising you see.
Visit our Privacy Policy to learn more. By continuing to use the site, you agree to this use of cookies and data.
  • In Latvia
  • List of Countries
  • For 7 days
  • Water Temperature
  • Satellite Maps
  • Weather Map
  • Weather Widgets
  • user-avatar
    Login

    Hourly Weather Yulara

    Today, 22 March, Friday

    Time Temperature Precipitation Wind Pressure Humidity
    00:00 +30°C° 0 mm 5 mps 716 mmHg 23%
    01:00 +29°C° 0 mm 5 mps 716 mmHg 24%
    02:00 +29°C° 0 mm 5 mps 715 mmHg 25%
    03:00 +28°C° 0 mm 4 mps 715 mmHg 26%
    04:00 +28°C° 0 mm 4 mps 715 mmHg 27%
    05:00 +27°C° 0 mm 4 mps 715 mmHg 28%
    06:00 +26°C° 0 mm 3 mps 715 mmHg 29%
    07:00 +29°C° 0 mm 4 mps 716 mmHg 25%
    08:00 +32°C° 0 mm 5 mps 716 mmHg 21%
    09:00 +36°C° 0 mm 7 mps 716 mmHg 16%
    10:00 +39°C° 0 mm 7 mps 716 mmHg 15%
    11:00 +40°C° 0 mm 6 mps 716 mmHg 14%
    12:00 +42°C° 0 mm 6 mps 715 mmHg 12%
    13:00 +43°C° 0 mm 5 mps 715 mmHg 12%
    14:00 +43°C° 0 mm 5 mps 714 mmHg 11%
    15:00 +44°C° 0 mm 4 mps 713 mmHg 11%
    16:00 +43°C° 0 mm 4 mps 713 mmHg 11%
    17:00 +42°C° 0 mm 4 mps 713 mmHg 12%
    18:00 +41°C° 0 mm 4 mps 713 mmHg 12%
    19:00 +38°C° 0 mm 4 mps 713 mmHg 14%
    20:00 +37°C° 0 mm 4 mps 714 mmHg 15%
    21:00 +35°C° 0 mm 5 mps 714 mmHg 17%
    22:00 +34°C° 0 mm 5 mps 714 mmHg 18%
    23:00 +33°C° 0 mm 5 mps 714 mmHg 19%

    Tomorrow, 23 March, Saturday

    Time Temperature Precipitation Wind Pressure Humidity
    00:00 +33°C° 0 mm 5 mps 714 mmHg 19%
    01:00 +32°C° 0 mm 5 mps 713 mmHg 20%
    02:00 +30°C° 0 mm 5 mps 713 mmHg 21%
    03:00 +30°C° 0 mm 5 mps 713 mmHg 21%
    04:00 +29°C° 0 mm 5 mps 713 mmHg 22%
    05:00 +29°C° 0 mm 5 mps 713 mmHg 22%
    06:00 +28°C° 0 mm 4 mps 713 mmHg 22%
    07:00 +30°C° 0 mm 5 mps 713 mmHg 23%
    08:00 +34°C° 0 mm 5 mps 713 mmHg 24%
    09:00 +36°C° 0 mm 5 mps 714 mmHg 25%
    10:00 +39°C° 0 mm 5 mps 714 mmHg 22%
    11:00 +41°C° 0 mm 5 mps 713 mmHg 18%
    12:00 +43°C° 0 mm 5 mps 713 mmHg 15%
    13:00 +43°C° 0 mm 4 mps 712 mmHg 14%
    14:00 +43°C° 0 mm 4 mps 712 mmHg 13%
    15:00 +44°C° 0 mm 3 mps 711 mmHg 13%
    16:00 +42°C° 0 mm 3 mps 711 mmHg 14%
    17:00 +40°C° 0 mm 2 mps 711 mmHg 15%
    18:00 +39°C° 0 mm 1 mps 711 mmHg 16%
    19:00 +38°C° 0 mm 2 mps 712 mmHg 16%
    20:00 +38°C° 0 mm 3 mps 713 mmHg 16%
    21:00 +37°C° 0 mm 4 mps 713 mmHg 16%
    22:00 +36°C° 0 mm 7 mps 713 mmHg 21%
    23:00 +34°C° 0 mm 9 mps 713 mmHg 25%

    Day after tomorrow, 24 March, Sunday

    Time Temperature Precipitation Wind Pressure Humidity
    00:00 +32°C° 0 mm 11 mps 713 mmHg 29%
    01:00 +31°C° 0 mm 10 mps 713 mmHg 33%
    02:00 +29°C° 0 mm 9 mps 713 mmHg 37%
    03:00 +28°C° 0 mm 8 mps 713 mmHg 41%
    04:00 +27°C° 0 mm 8 mps 713 mmHg 43%
    05:00 +27°C° 0 mm 7 mps 713 mmHg 45%
    06:00 +26°C° 0 mm 6 mps 713 mmHg 47%
    07:00 +27°C° 0.1 mm 6 mps 714 mmHg 44%
    08:00 +29°C° 0.1 mm 7 mps 714 mmHg 41%
    09:00 +30°C° 0.1 mm 7 mps 714 mmHg 37%
    10:00 +33°C° 0 mm 6 mps 714 mmHg 34%
    11:00 +35°C° 0 mm 6 mps 714 mmHg 31%
    12:00 +39°C° 0 mm 5 mps 714 mmHg 28%
    13:00 +38°C° 0 mm 4 mps 713 mmHg 26%
    14:00 +39°C° 0 mm 3 mps 712 mmHg 24%
    15:00 +40°C° 0 mm 2 mps 711 mmHg 22%
    16:00 +40°C° 0 mm 4 mps 711 mmHg 25%
    17:00 +38°C° 0 mm 6 mps 711 mmHg 27%
    18:00 +37°C° 0 mm 8 mps 711 mmHg 30%
    19:00 +35°C° 0.1 mm 9 mps 712 mmHg 35%
    20:00 +33°C° 0.1 mm 9 mps 713 mmHg 40%
    21:00 +32°C° 0.1 mm 9 mps 714 mmHg 45%
    22:00 +31°C° 0 mm 9 mps 714 mmHg 47%
    23:00 +29°C° 0 mm 8 mps 714 mmHg 49%

    25 March, Monday

    Time Temperature Precipitation Wind Pressure Humidity
    00:00 +28°C° 0 mm 8 mps 714 mmHg 52%
    01:00 +28°C° 0 mm 8 mps 714 mmHg 53%
    02:00 +28°C° 0 mm 7 mps 714 mmHg 55%
    03:00 +27°C° 0 mm 7 mps 713 mmHg 56%
    04:00 +27°C° 0 mm 8 mps 714 mmHg 57%
    05:00 +26°C° 0 mm 8 mps 714 mmHg 59%
    06:00 +26°C° 0 mm 9 mps 715 mmHg 60%
    07:00 +26°C° 0 mm 10 mps 716 mmHg 58%
    08:00 +26°C° 0 mm 10 mps 716 mmHg 56%
    09:00 +27°C° 0 mm 11 mps 717 mmHg 55%
    10:00 +27°C° 0 mm 10 mps 717 mmHg 52%
    11:00 +28°C° 0 mm 10 mps 717 mmHg 49%
    12:00 +28°C° 0 mm 9 mps 716 mmHg 46%
    13:00 +31°C° 0 mm 9 mps 716 mmHg 42%
    14:00 +32°C° 0 mm 8 mps 716 mmHg 38%
    15:00 +33°C° 0 mm 8 mps 715 mmHg 35%
    16:00 +33°C° 0 mm 8 mps 716 mmHg 36%
    17:00 +32°C° 0 mm 8 mps 716 mmHg 37%
    18:00 +31°C° 0 mm 9 mps 717 mmHg 39%
    19:00 +29°C° 0 mm 9 mps 718 mmHg 37%
    20:00 +28°C° 0 mm 9 mps 718 mmHg 36%
    21:00 +26°C° 0 mm 9 mps 719 mmHg 34%
    22:00 +24°C° 0 mm 9 mps 719 mmHg 33%
    23:00 +23°C° 0 mm 9 mps 719 mmHg 32%

    26 March, Tuesday

    Time Temperature Precipitation Wind Pressure Humidity
    00:00 +22°C° 0 mm 8 mps 719 mmHg 32%
    01:00 +21°C° 0 mm 9 mps 719 mmHg 36%
    02:00 +19°C° 0 mm 9 mps 719 mmHg 39%
    03:00 +18°C° 0 mm 9 mps 719 mmHg 43%
    04:00 +17°C° 0 mm 9 mps 719 mmHg 47%
    05:00 +16°C° 0 mm 8 mps 720 mmHg 51%
    06:00 +15°C° 0 mm 8 mps 720 mmHg 55%
    07:00 +16°C° 0 mm 8 mps 721 mmHg 51%
    08:00 +17°C° 0 mm 8 mps 722 mmHg 46%
    09:00 +18°C° 0 mm 8 mps 722 mmHg 41%
    10:00 +21°C° 0 mm 8 mps 722 mmHg 35%
    11:00 +24°C° 0 mm 7 mps 722 mmHg 28%
    12:00 +27°C° 0 mm 7 mps 721 mmHg 22%
    13:00 +28°C° 0 mm 7 mps 721 mmHg 20%
    14:00 +29°C° 0 mm 7 mps 720 mmHg 17%
    15:00 +30°C° 0 mm 7 mps 719 mmHg 15%
    16:00 +29°C° 0 mm 7 mps 720 mmHg 15%
    17:00 +29°C° 0 mm 7 mps 720 mmHg 16%
    18:00 +28°C° 0 mm 7 mps 720 mmHg 17%
    19:00 +26°C° 0 mm 6 mps 721 mmHg 19%
    20:00 +23°C° 0 mm 6 mps 721 mmHg 20%
    21:00 +21°C° 0 mm 6 mps 722 mmHg 22%
    22:00 +20°C° 0 mm 6 mps 722 mmHg 24%
    23:00 +19°C° 0 mm 6 mps 722 mmHg 26%

    27 March, Wednesday

    Time Temperature Precipitation Wind Pressure Humidity
    00:00 +17°C° 0 mm 6 mps 722 mmHg 28%
    01:00 +17°C° 0 mm 6 mps 721 mmHg 29%
    02:00 +16°C° 0 mm 6 mps 721 mmHg 29%
    03:00 +15°C° 0 mm 5 mps 721 mmHg 30%
    04:00 +15°C° 0 mm 5 mps 721 mmHg 31%
    05:00 +14°C° 0 mm 5 mps 721 mmHg 32%
    06:00 +14°C° 0 mm 5 mps 721 mmHg 32%
    07:00 +16°C° 0 mm 6 mps 721 mmHg 30%
    08:00 +18°C° 0 mm 7 mps 722 mmHg 28%
    09:00 +21°C° 0 mm 8 mps 722 mmHg 25%
    10:00 +23°C° 0 mm 7 mps 722 mmHg 22%
    11:00 +26°C° 0 mm 7 mps 721 mmHg 18%
    12:00 +28°C° 0 mm 6 mps 721 mmHg 15%
    13:00 +29°C° 0 mm 6 mps 720 mmHg 14%
    14:00 +30°C° 0 mm 6 mps 720 mmHg 12%
    15:00 +32°C° 0 mm 5 mps 719 mmHg 11%
    16:00 +30°C° 0 mm 5 mps 719 mmHg 12%
    17:00 +29°C° 0 mm 5 mps 719 mmHg 12%
    18:00 +28°C° 0 mm 5 mps 719 mmHg 13%
    19:00 +27°C° 0 mm 5 mps 719 mmHg 15%
    20:00 +25°C° 0 mm 5 mps 720 mmHg 18%
    21:00 +22°C° 0 mm 5 mps 720 mmHg 20%
    22:00 +21°C° 0 mm 5 mps 720 mmHg 21%
    23:00 +20°C° 0 mm 4 mps 720 mmHg 23%
    Show more